Flag for Turkey Weather past 2 weeks in Bursa, Turkey

Now
63 °F

Sprinkles. Overcast.


Feels Like: 63 °F
Forecast: 59 / 77 °F
Wind: 1 mph from East

Location: Bursa

Current Time: Sep 19, 2014 at 3:39:18 AM

Latest Report: Sep 19, 2014 at 12:00 AM


Visibility: 4 mi

Pressure: 30.13 "Hg

Humidity: 99%

Dew point: 62 °F

Location of BursaLocation

Historic Weather in Bursa — Graph

°F

Bursa temperature yesterday

Maximum temperature yesterday: 71 °F (at 11:00 AM)
Minimum temperature yesterday: 63 °F (at 11:00 PM)
Average temperature yesterday: 65 °F

Past Weeks' High & Low Weather Summary

 TemperatureHumidityPressure
High88 °F (Sep 5, 4:00 PM)99% (Sep 9, 7:00 AM)30.13 "Hg (Sep 9, 7:00 AM)
Low59 °F (Sep 11, 7:00 AM)28% (Sep 12, 5:00 PM)29.69 "Hg (Sep 5, 6:00 PM)
Average73 °F75%29.89 "Hg
* Reported Midnight between Sep 3 and Sep 4 — Midnight between Sep 18 and Sep 19, Bursa, Weather by CustomWeather, © 2014

Note: Actual official high and low records may vary slightly from our data, if they occured in-between our weather recording intervals... More about our weather records

Advertising

Bursa weather history for previous 24 hours

 ConditionsComfort  
Time TempWeatherWind HumidityBarometerVisibility
12:00 AM
Sep 19
63 °FSprinkles. Overcast.1 mph99%30.13 "Hg4 mi
11:00 PM
Sep 18
63 °FSprinkles. Overcast.1 mph99%30.12 "Hg4 mi
10:00 PM63 °FRain showers. Overcast.2 mph98%30.12 "Hg3 mi
9:00 PM64 °FSprinkles. Overcast.1 mph99%30.10 "Hg4 mi
6:00 PM64 °FSprinkles. Overcast.2 mph97%30.06 "Hg4 mi
5:00 PM65 °FSprinkles. Overcast.2 mph97%30.04 "Hg4 mi
4:00 PM66 °FPartly sunny.1 mph96%30.02 "Hg7 mi
3:00 PM66 °FSprinkles. Overcast.2 mph95%30.01 "Hg4 mi
2:00 PM65 °FSprinkles. Overcast.2 mph94%30.01 "Hg4 mi
1:00 PM65 °FSprinkles. Overcast.5 mph95%30.01 "Hg4 mi
12:00 PM67 °FRain showers. Overcast.8 mph91%29.99 "Hg4 mi
11:00 AM71 °FPartly sunny.3 mph80%29.98 "Hg7 mi
10:00 AM69 °FPartly sunny.5 mph88%29.97 "Hg7 mi
9:00 AM67 °FPartly sunny.5 mph93%29.97 "Hg7 mi
8:00 AM64 °FPartly sunny.1 mph98%29.94 "Hg7 mi
7:00 AM64 °FPartly sunny.2 mph98%29.95 "Hg7 mi
6:00 AM64 °FPassing clouds.3 mph99%29.93 "Hg7 mi
5:00 AM64 °FPassing clouds.1 mph99%29.93 "Hg7 mi
4:00 AM64 °FPassing clouds.1 mph99%29.93 "Hg7 mi
3:00 AM64 °FPassing clouds.2 mph99%29.92 "Hg7 mi
Weather by CustomWeather, © 2014

See weather overviewHow to use our weather pages